DELTA 1 DEB, 40758

Orbit data source: Space-Track

DELTA 1 DEB, 40758 is space debris in SSO originally from a launch on Thu, 29 Jul 1976 UTC launched from the Air Force Western Test Range (AFWTR). Debris objects in space refer to the collection of defunct objects orbiting the Earth. Examples of debris include non-operational satellites, rocket bodies, and fragments generated from explosions, collisions, or faulty payload assembly.

Loading next visibility...
Identifier
40758, 1976-077GB
Orbit
SSO
Country
Flag of USUS
Related business
Manufacturer
Unknown
Mission
Spacecraft
Bus & Motor
Unknown
Mass
Unknown
Launch date (UTC)
1976-07-29 (49 years ago)
Launch vehicle
Unknown
Launch site
Air Force Western Test Range (AFWTR)
Object type
Payload
Rocket body
Debris
Shape & HBR
Unknown shape, 0.1 m
Radar Cross Section
Small (<0.1 m²)

Expand to show TLE details & history
Last TLE update: 1 day ago

TLE from 1 day ago
0 DELTA 1 DEB
1 40758U 76077GB  25341.67783616  .00000025  00000-0  62495-3 0  9996
2 40758 102.4992 307.8249 0088637  82.8233 107.0898 12.25479009538642
Epoch: 2025-12-07T16:16Z
TLE epoch observation values (Epoch: 2025-12-07T16:16:05.044Z)
Latitude
-10.77841°
Longitude
164.70914°
Altitude
1,594.586 km
Speed
7.062 km/s
True Right ascension
08h 21m 40s
True Declination
-10° 43' 19"
Sunlit
Object was in daylight at epoch
Visualization orbit readout
Latitude
Unknown
Longitude
Unknown
Altitude
Unknown
Speed
Unknown
Apparent Right ascension
Unknown
Apparent Declination
Unknown
Sunlit
N/A
Visualization observer readout
Local Sidereal Time
17:01:55
Azimuth
Unknown
Elevation
Unknown
Doppler factor
Unknown
Orbital elements
Apogee altitude
1,636.808 km
Perigee altitude
1,495.972 km
Semi-major axis
7,944.527 km
Eccentricity
0.00886
Inclination
102.4992°
RAAN
307.8249°
Arg. of periapsis
82.8233°
True anomaly
108.05746°
Mean anomaly
107.0898°
Eccentric anomaly
107.57395°
Mean motion
3.06508 °/min
Orbital period
117.45 mins
BSTAR
0.00062495
Loading maneuver chart data...
Computing Atmospheric mass density...
Loading historical data...
Loading historical data...
Loading historical data...
Loading historical data...
Loading historical data...
Loading historical data...
Loading historical data...

Documentation

Showing up to 5 results
|